GW0824 Weather Reports


time (UTC)temp
F
wind
direction
speed
knots
gust
knots
rain 1hr
in
rain 24hr
in
rain mn
in
humidity
%
barometer
mb
20260906203052 90 78 0.9 9.6 0.00 0.00 0.00 43 895.5
20260906201614 90 59 1.7 12.2 0.00 0.00 0.00 42 895.6
20260906200051 90 74 0.9 5.2 0.00 0.00 0.00 45 895.6
20260906194555 89 56 2.6 14.8 0.00 0.00 0.00 46 896.0
20260906193046 89 69 0.9 8.7 0.00 0.00 0.00 46 896.1
20260906191542 89 78 1.7 6.1 0.00 0.00 0.00 45 896.0
20260906190038 88 74 0.9 4.3 0.00 0.00 0.00 48 896.3
20260906184537 87 92 0.9 3.5 0.00 0.00 0.00 49 896.4
20260906183033 87 76 0.0 8.7 0.00 0.00 0.00 49 896.5
20260906181542 86 360 0.9 7.8 0.00 0.00 0.00 49 897.0
20260906180026 85 360 0.9 5.2 0.00 0.00 0.00 54 897.2
20260906174522 83 360 0.0 3.5 0.00 0.00 0.00 57 897.4
20260906173023 82 360 0.0 8.7 0.00 0.00 0.00 60 897.6
20260906171518 82 360 0.0 1.7 0.00 0.00 0.00 62 898.1
20260906170014 81 360 0.0 2.6 0.00 0.00 0.00 65 898.1
20260906164518 79 360 0.0 3.5 0.00 0.00 0.00 69 898.0
20260906163007 78 360 0.9 8.7 0.00 0.00 0.00 71 898.3
20260906161504 76 360 0.0 7.0 0.00 0.00 0.00 76 898.4
20260906160100 75 360 0.0 5.2 0.00 0.00 0.00 76 898.4
20260906154556 76 360 1.7 8.7 0.00 0.00 0.00 76 898.4
20260906153110 74 360 0.0 10.4 0.00 0.00 0.00 78 898.6
20260906151555 75 360 0.9 10.4 0.00 0.00 0.00 79 898.4
20260906150056 74 360 1.7 17.4 0.00 0.00 0.00 80 898.6
20260906144600 72 360 3.5 12.2 0.00 0.00 0.00 83 898.5
20260906143055 72 360 0.9 7.8 0.00 0.00 0.00 87 898.5
20260906141550 70 360 0.9 7.8 0.00 0.00 0.00 90 898.3
20260906140052 68 26 0.9 2.6 0.00 0.00 0.00 94 898.1
20260906134552 67 360 0.0 1.7 0.00 0.00 0.00 95 898.0
20260906133053 67 360 0.0 2.6 0.00 0.00 0.00 95 897.8
20260906131547 67 360 0.0 1.7 0.00 0.00 0.00 95 897.9
20260906130100 66 360 0.0 1.7 0.00 0.00 0.00 95 897.8
20260906124546 66 360 0.0 0.9 0.00 0.00 0.00 95 897.9
20260906123047 66 360 0.0 3.5 0.00 0.00 0.00 94 898.1
20260906121548 65 360 0.0 1.7 0.00 0.00 0.00 94 898.0
20260906120043 65 360 0.9 5.2 0.00 0.00 0.00 93 898.1
20260906114542 64 360 0.9 2.6 0.00 0.00 0.00 93 898.1
20260906113041 64 360 0.9 4.3 0.00 0.00 0.00 92 898.0
20260906111541 64 360 0.0 0.0 0.00 0.00 0.00 91 897.8
20260906110039 64 360 0.0 0.0 0.00 0.00 0.00 91 897.4
20260906104536 64 360 0.0 0.9 0.00 0.00 0.00 91 897.3
20260906103036 65 360 0.0 2.6 0.00 0.00 0.00 91 897.4
20260906101535 65 360 0.0 5.2 0.00 0.00 0.00 91 897.5
20260906100039 65 360 0.0 1.7 0.00 0.00 0.00 89 897.7
20260906094531 66 360 0.0 0.9 0.00 0.00 0.00 90 897.8
20260906093044 66 360 0.0 0.0 0.00 0.00 0.00 90 897.8
20260906091527 66 360 0.0 0.9 0.00 0.00 0.00 89 897.6
20260906090025 66 360 0.0 0.9 0.00 0.00 0.00 88 897.5
20260906084524 67 360 0.0 0.9 0.00 0.00 0.00 86 897.5
20260906083022 68 360 0.0 7.8 0.00 0.00 0.00 82 897.8
20260906081529 72 360 0.9 7.0 0.00 0.00 0.00 73 897.8
20260906080010 75 360 0.0 11.3 0.00 0.00 0.00 67 897.8
20260906074508 76 360 0.0 0.9 0.00 0.00 0.00 66 897.5
20260906073015 76 77 0.0 1.7 0.00 0.00 0.00 65 896.8
20260906071506 76 78 0.0 1.7 0.00 0.00 0.00 65 896.6
20260906070003 76 81 0.0 0.9 0.00 0.00 0.00 65 896.4
20260906064502 76 67 0.0 0.9 0.00 0.00 0.00 65 896.3
20260906063004 76 44 0.0 1.7 0.00 0.00 0.00 65 896.2
20260906061502 76 61 0.0 1.7 0.00 0.00 0.00 65 896.3
20260906060100 76 68 0.0 1.7 0.00 0.00 0.00 66 896.3
20260906054558 76 55 0.0 0.9 0.00 0.00 0.00 65 896.3
20260906053059 76 61 0.0 0.0 0.00 0.00 0.00 65 896.2
20260906051556 76 58 0.0 0.0 0.00 0.00 0.00 65 896.3
20260906050108 76 76 0.0 1.7 0.00 0.00 0.00 65 896.0
20260906044553 76 44 0.0 0.0 0.00 0.00 0.00 65 896.2
20260906043106 77 67 0.0 0.9 0.00 0.00 0.00 65 896.1
20260906041553 77 80 0.0 0.0 0.00 0.00 0.00 64 896.0
20260906040110 78 360 0.0 1.7 0.00 0.00 0.00 63 895.9
20260906034551 78 360 0.0 1.7 0.00 0.00 0.00 62 896.0
20260906033053 79 360 0.0 1.7 0.00 0.00 0.00 61 896.1
20260906031551 80 360 0.0 1.7 0.00 0.00 0.00 59 896.1
20260906030050 80 360 0.0 1.7 0.00 0.00 0.00 58 896.1
20260906024648 81 360 0.0 1.7 0.00 0.00 0.00 57 895.9
20260906023104 82 360 0.0 3.5 0.00 0.00 0.00 55 895.6
20260906021548 83 360 0.0 1.7 0.00 0.00 0.00 52 895.5
20260906020047 84 360 0.0 3.5 0.00 0.00 0.00 48 895.4
20260906014557 86 360 0.0 0.9 0.00 0.00 0.00 46 895.3
20260906013047 87 360 0.0 1.7 0.00 0.00 0.00 45 895.3
20260906011554 88 360 0.0 0.0 0.00 0.00 0.00 43 895.4
20260906010046 89 360 0.0 0.9 0.00 0.00 0.00 41 895.4
20260906004544 90 24 0.0 1.7 0.00 0.00 0.00 40 895.4
20260906003051 91 49 0.0 1.7 0.00 0.00 0.00 38 894.9
20260906001544 91 360 0.0 0.9 0.00 0.00 0.00 39 894.8
20260906000044 91 72 0.0 1.7 0.00 0.00 0.00 39 894.8
20260905234553 91 49 0.9 9.6 0.00 0.00 0.00 41 894.7
20260905233043 91 52 0.0 3.5 0.00 0.00 0.00 40 894.7
20260905231543 91 51 0.0 1.7 0.00 0.00 0.00 39 894.7
20260905230043 91 37 0.0 1.7 0.00 0.00 0.00 38 894.5
20260905224546 91 59 0.0 3.5 0.00 0.00 0.00 38 894.4
20260905223041 92 61 0.0 4.3 0.00 0.00 0.00 39 894.4
20260905221542 92 60 0.0 4.3 0.00 0.00 0.00 37 894.3
20260905220041 92 61 0.9 7.8 0.00 0.00 0.00 37 894.3
20260905214538 93 33 0.0 7.0 0.00 0.00 0.00 37 894.5
20260905213035 93 82 0.9 16.5 0.00 0.00 0.00 36 894.8
20260905211535 94 67 1.7 11.3 0.00 0.00 0.00 38 894.9
20260905210034 94 48 0.9 12.2 0.00 0.00 0.00 36 895.0
20260905204528 94 71 0.9 5.2 0.00 0.00 0.00 38 895.3